LogoCoinalyze
    Ad-Free Version Главная Рынки Ставки финансирования
    Фьючерсные данные
    • Агрегированные данные (Коины)
    • Индивидуальные графики
    • Глобальные графики
    Оповещения
    TA
    Bitcoin Ethereum BNB Ripple Tron ZCash Dogecoin Monero UNUS SED LEO Chainlink Cardano Stellar Lumens Bitcoin Cash Litecoin Hedera Cronos Polkadot Ethereum Classic Algorand Cosmos Quant VeChain Dash Bitcoin SV BitTorrent Terra Decred Tezos Iota The Graph THETA Decentraland NEO Chiliz MultiversX Basic Attention Token Golem Horizen Qtum 0x DigiByte Beam RIF Token FTX Token Holo FUNToken Ontology Zilliqa Nano aelf Ravencoin Enjin Coin Siacoin Mask Network Verge Status WINk Waves IoTeX iExec RLC Power Ledger Steem Kyber Network Crystal Lisk Ark WOO Network IOST Ardor WAX Icon Storj Wanchain Loopring Bitcoin Diamond Augur AdEx Bitcoin Gold OmiseGO NEM MonaCoin BitShares Ren V Systems Komodo Nuls Mithril SOLVE Maker Aion EOS Nebulas HedgeTrade Bread Fetch.ai TomoChain Polygon Fantom Waltonchain GXChain Bytom Metaverse ETP MaidSafeCoin QASH
    Заказать:
    Еще
    • API
    • Паттерны свечей
    • Пожертвования
    • Контактная
    • Карта сайта
    • Privacy Policy
    • Disclaimer
    • Theme:
    Русский
    • English
    • Français
    • Deutsch
    • Türkçe
    • Nederlands
    • Português (BR)
    • Español
    • 한국어
    • 简体中文
    • 日本語
     
    Войти / Подписаться
    Markets/ Pepe/ PEPE к GBP/ PEPEGBP Kraken
    Trades
    WL
    Чат
    Стат
    Новости
    ⦷
    AAA
    0.000002570 3200000.00000000 18:11:39
    0.000002580 9405785.37000000 13:43:18
    0.000002580 57233185.95906000 13:43:17
    0.000002564 7668444.30180000 13:06:54
    0.000002566 57604890.10820000 13:06:54
    0.000002571 66605443.29000000 13:06:50
    0.000002590 3200000.00000000 12:13:16
    0.000002586 3552310.00000000 09:17:16
    0.000002610 38284839.20367001 07:50:56
    0.000002612 5000000.00000000 05:13:36
    0.000002629 27815789.47368000 04:30:36
    0.000002630 11806084.00000000 03:48:12
    0.000002636 37936267.07132000 03:44:45
    0.000002636 2932272.00000000 22:08:31
    0.000002633 7339032.00000000 21:23:13
    0.000002630 1000000.00000000 21:17:26
    0.000002653 10331030.00000000 20:19:31
    0.000002646 57115408.69946000 19:12:24
    0.000002646 55777191.58258000 19:12:24
    0.000002647 139390758.35905001 19:12:24
    0.000002648 55729509.91891000 19:12:24
    0.000002640 1000000.00000000 18:29:22
    0.000002649 1806225.00000000 18:22:30
    0.000002639 40913220.91701000 18:06:12
    0.000002637 55985108.01813000 18:06:12
    0.000002637 55979248.30773000 18:06:12
    0.000002618 9484732.82442000 17:27:00
    0.000002638 2703522.00000000 16:55:56
    0.000002613 17250030.00000000 14:12:47
    0.000002640 7916667.00000000 13:00:49
    0.000002648 5845921.45015000 11:49:22
    0.000002595 12000000.00000000 07:43:30
    0.000002594 41184556.66924000 07:39:32
    0.000002593 56960092.93522000 07:39:32
    0.000002592 56990641.70478000 07:39:32
    0.000002555 67022546.22128000 05:20:01
    0.000002528 10080000.00000000 04:32:40
    0.000002530 743874.00000000 03:05:38
    0.000002538 9842519.68503000 00:31:33
    0.000002493 5160642.57029000 23:47:35
    0.000002558 268942.00188000 23:32:42
    0.000002560 57694292.83049000 23:32:42
    0.000002560 57693675.58572000 23:32:42
    0.000002638 11770281.00000000 23:08:38
    0.000002669 3444422.00000000 22:49:50
    0.000002650 139128524.49843001 22:30:24
    0.000002675 1277300.00000000 22:24:33
    0.000002680 79253.73134000 22:22:29
    0.000002680 54996897.84929000 22:22:29
    0.000002743 720689.00000000 20:18:00
    0.000002769 3489287.00000000 19:12:24
    0.000002779 72091061.53293000 19:00:19
    0.000002777 53234816.14177000 19:00:19
    0.000002776 53251390.71158000 19:00:19
    0.000002780 701878.00000000 18:58:56
    0.000002774 5710737.00000000 18:41:58
    0.000002780 1737740.00000000 18:40:02
    0.000002777 6163412.00000000 18:32:24
    0.000002765 1790136.34733000 18:18:53
    0.000002774 33509257.00000000 18:14:51
    0.000002783 1790136.34733000 17:52:48
    0.000002787 763144.00000000 17:38:49
    0.000002778 15957580.25349000 17:19:11
    0.000002778 15957580.25349000 17:19:11
    0.000002778 15957580.25349000 17:19:11
    0.000002778 15957580.25349000 17:19:11
    0.000002778 15957580.25349000 17:19:11
    0.000002778 15957580.25349000 17:19:10
    0.000002778 15957580.25349000 17:19:10
    0.000002778 15957580.25349000 17:19:10
    0.000002778 15957580.25349000 17:19:10
    0.000002778 53191877.50467000 17:18:02
    0.000002778 53191877.50467000 17:18:01
    0.000002778 53191877.50467000 17:18:01
    0.000002778 53191877.50467000 17:18:01
    0.000002778 53191877.50467000 17:17:57
    0.000002778 53191877.50467000 17:17:57
    0.000002778 53191877.50467000 17:17:55
    0.000002778 53191877.50467000 17:17:55
    0.000002778 53191877.50467000 17:17:53
    0.000002778 53191877.50467000 17:17:53
    0.000002778 53191877.50467000 17:17:52
    0.000002778 53191877.50467000 17:17:52
    0.000002778 53191877.50467000 17:17:52
    0.000002778 53191877.50467000 17:17:52
    0.000002778 53191877.50467000 17:17:52
    0.000002778 26595.94002000 17:17:51
    0.000002778 53165281.56465000 17:17:51
    0.000002778 53191877.50467000 17:17:51
    0.000002778 53191877.50467000 17:17:51
    0.000002778 53191877.50467000 17:17:51
    0.000002778 53191877.50467000 17:17:51
    0.000002778 53191877.50467000 17:17:50
    0.000002778 53191877.50467000 17:17:50
    0.000002778 53191877.50467000 17:17:50
    0.000002778 53191877.50467000 17:17:50
    0.000002778 53191877.50467000 17:17:50
    0.000002778 53191877.50467000 17:17:49
    0.000002778 53191877.50467000 17:17:49
    0.000002778 53191877.50467000 17:17:49
    Выйти
    AAA
    Помощь
    🙂 🤣 😎 🤗 😛 😉 😜 🤑 🤔 😑 😴 😕 🙃 😲 😇 🙁 😢 😬 😟 😠 🕺 🏃 💪 ✌ 👌 👍 👎 👏 👋 🤝 🍺 🍻 🐋 🐟 🦈 🗽 🚄 ✈ 🛑 🚀 🏦 🌚 ⭐ 🌞 ⚡ 🏆 💰 💲 🔨 ❓ ❗ 💯 🔶 🏁
    ☺
    Войти или Подписаться и Чат
    24 Часа
    Изменения
    -2.98%
    Объем
    661,734,466
    Хай
    0.000002653
    Лоу
    0.000002564
    7 Дней
    Изменения
    -14.65%
    Объем
    14,322,271,849
    Хай
    0.000003300
    Лоу
    0.000002493
    30 Дней
    Изменения
    +19.42%
    Объем
    79,341,693,236
    Хай
    0.000003300
    Лоу
    0.000001878
    Pepe price rallies 25% as whale demand and futures interest surge
    Key takeaways Pepe has gained 25% this week, including a combined 22% advance over the previous two days. Seven whale transactions worth more than $1 million each occurred Thursday, the highest...
    coinjournal.net
    Aug 21, 2026 08:41
    PEPE Supply on Exchanges Just Took a Massive Hit – What’s Next?
    A drop in PEPE exchange balances has added to bullish expectations despite muted trader interest.
    cryptopotato.com
    Aug 6, 2026 20:02
    PEPE Exchange Outflows Hit Nearly 2-Year High as Whales Accumulate
    Pepe (PEPE) recorded its largest single-day exchange outflow since November 2024, with 4.54 trillion tokens leaving trading platforms, signaling that holders are moving supply away from immediate...
    beincrypto.com
    Aug 6, 2026 04:57
    Meme Coin Based on White House Shooter Conspiracy Rallies 320%
    $HENRY surged 300% after a 2023 Pepe tweet appeared to name the White House shooter, fueling a viral time-travel meme. The post Meme Coin Based on White House Shooter Conspiracy Rallies 320%...
    beincrypto.com
    Apr 27, 2026 16:11
    PEPE surges 4% as market sentiment improves, eyes Key resistance breakout
    Key takeaways Pepe extends gains on Wednesday, stretching its rally from the 50-day EMA. Derivatives data show heightened retail activity as risk-on sentiment returns to the market. Pepe (PEPE) is...
    coinjournal.net
    Apr 22, 2026 11:44
    Why The PEPE Price Could Stage A 55X Rally To Reach New $0.0001 ATH
    The PEPE price has now started to edge back into bullish conversations after the recent inflows into the crypto market. The last time PEPE’s weekly chart printed the kind of structure now...
    newsbtc.com
    Apr 21, 2026 15:30
    Pepe (PEPE) surges 9%, drawing interest from whales
    Key takeaways PEPE is up 9% in the last 24 hours, making it one of the best performers among the top 50 cryptocurrencies by market cap. The rally comes amid renewed interest from whales and retail...
    coinjournal.net
    Apr 16, 2026 07:40
    Murad Says SPX6900 (SPX) Is Primed for a Rally — Is He Right This Time?
    Crypto influencer Murad Mahmudov claims SPX6900 (SPX) is stabilizing at the same market cap level where Dogecoin (DOGE) and Pepe (PEPE) consolidated before their explosive rallies. The...
    beincrypto.com
    Apr 5, 2026 21:36
    The Shiba Inu Of This Cycle: Analyst Shares Why It Is Better To Buy PEPE Now
    In the bull market cycle of 2021-2022, the Shiba Inu meme coin made waves in a way that changed the face of meme coins forever. This came after Dogecoin’s initial 36,000% rally, and Shiba Inu...
    newsbtc.com
    Apr 4, 2026 07:30
    PEPE Explodes by 18% Amid Altcoin Rally, BTC Tapped $74K: Market Watch
    The frog-themed meme coin is today's biggest gainer, followed by TAO, DOT, and BONK.
    cryptopotato.com
    Mar 16, 2026 10:56
    Should PEPE traders brace for volatility as short squeeze potential builds?
    The memecoin market has seen its collective market capitalization drop by 48% over the past year, and 6.9% over the past month, according to CoinMarketCap. According to Glassnode, the memecoin...
    ambcrypto.com
    Mar 7, 2026 18:00
    Просто напечатайте соответствующую команду в чате. Заменить никнейм 1 на действительный никнейм
    • /ignore nick1 Игнорировать пользователя чатом
    • /unignore nick1 Перестать игнорировать пользователя чатом
    • /ignorelist Показать проигнорированных пользователей чатом